N523VG KGGG-KGLS

Flight info

Callsign N523VG
Flight time N/A
Altitude 21000
Route CESAN BOBLE
Aircraft VIPJ/L-VGDW/C

Departure

Time 2026-04-16 06:08
Airport East Texas Regional Airport (KGGG)

Arrival

Time N/A
Airport Scholes International At Galveston Airport (KGLS)
Time Latitude Longitude Altitude Speed Heading
2026-04-16 05:51 32.38243 -94.71864 362 ft 0 kts 178°
2026-04-16 06:00 32.38226 -94.71848 362 ft 6 kts 85°
2026-04-16 06:00 32.38271 -94.71791 360 ft 13 kts 50°
2026-04-16 06:00 32.38351 -94.71690 360 ft 19 kts 44°
2026-04-16 06:00 32.38456 -94.71571 356 ft 20 kts 38°
2026-04-16 06:01 32.38552 -94.71519 354 ft 14 kts
2026-04-16 06:01 32.38657 -94.71521 354 ft 15 kts 358°
2026-04-16 06:01 32.38769 -94.71526 354 ft 16 kts 360°
2026-04-16 06:01 32.38891 -94.71526 353 ft 18 kts 359°
2026-04-16 06:02 32.39182 -94.71532 347 ft 23 kts
2026-04-16 06:02 32.39300 -94.71532 345 ft 0 kts 355°
2026-04-16 06:02 32.39301 -94.71532 345 ft 0 kts 355°
2026-04-16 06:03 32.39318 -94.71533 344 ft 4 kts
2026-04-16 06:03 32.39328 -94.71533 344 ft 0 kts 360°
2026-04-16 06:04 32.39333 -94.71533 344 ft 0 kts
2026-04-16 06:04 32.39337 -94.71533 344 ft 3 kts
2026-04-16 06:04 32.39349 -94.71532 344 ft 0 kts
2026-04-16 06:06 32.39367 -94.71535 343 ft 0 kts 341°
2026-04-16 06:06 32.39373 -94.71538 343 ft 2 kts 329°
2026-04-16 06:07 32.39393 -94.71586 343 ft 8 kts 281°
2026-04-16 06:07 32.39386 -94.71642 343 ft 8 kts 230°
2026-04-16 06:07 32.39281 -94.71666 346 ft 28 kts 180°
2026-04-16 06:07 32.38747 -94.71661 354 ft 126 kts 178°
2026-04-16 06:08 32.37814 -94.71645 1049 ft 140 kts 180°
2026-04-16 06:08 32.36928 -94.71721 2164 ft 144 kts 186°